Regional Weather Roundup
Issued by NWS

Home | Current Version | Previous Version | Text Only | Print | Product List | Glossary On
Versions: 1 2 3 4 5 6 7 8 9 10 11 12 13 14 15 16 17 18 19 20 21 22 23 24 25 26 27 28 29 30 31 32 33 34 35 36 37 38 39 40 41 42 43 44 45 46 47 48 49 50
000
ASUS43 KBIS 272202
RWRND

NORTH DAKOTA REGIONAL WEATHER ROUNDUP
NATIONAL WEATHER SERVICE BISMARCK ND
500 PM CDT WED MAY 27 2015

NOTE: "FAIR" INDICATES FEW OR NO CLOUDS BELOW 12,000 FEET WITH NO
SIGNIFICANT WEATHER AND/OR OBSTRUCTIONS TO VISIBILITY.


NDZ001>003-009>011-017-272300-
NORTHWEST NORTH DAKOTA

CITY           SKY/WX    TMP DP  RH WIND       PRES   REMARKS
WILLISTON      RAIN      60  56  86 CALM      29.98R FOG
MINOT          CLOUDY    77  49  37 E12       29.92F
MINOT AFB      CLOUDY    76  50  39 E14       29.91F
$$

NDZ018>021-031>035-040>046-272300-
SOUTHWEST NORTH DAKOTA

CITY           SKY/WX    TMP DP  RH WIND       PRES   REMARKS
BISMARCK       PTSUNNY   80  45  28 S16       29.92F
DICKINSON      LGT RAIN  69  52  54 SW16G26   29.89R
GARRISON         N/A     81  45  28 S10       29.90F
HETTINGER ARPT PTSUNNY   70  52  52 S20G26    29.90F
$$

NDZ004>008-012>016-024-026-027-054-272300-
NORTHEAST NORTH DAKOTA

CITY           SKY/WX    TMP DP  RH WIND       PRES   REMARKS
GRAND FORKS    SUNNY     77  49  37 N6        29.95F
GRND FRKS AFB  SUNNY     75  50  40 NE6       29.97F
DEVILS LAKE    MOSUNNY   75  50  41 E10G17    29.96S
$$

NDZ022-023-025-028>030-036>039-047>053-272300-
SOUTHEAST NORTH DAKOTA

CITY           SKY/WX    TMP DP  RH WIND       PRES   REMARKS
FARGO          SUNNY     82  50  32 CALM      29.95F
JAMESTOWN      PTSUNNY   80  49  33 MISG      29.94S
$$




USA.gov is the U.S. government's official web portal to all federal, state and local government web resources and services.